Change the Weather History Date:

Tuesday, September 4, 2012

  Actual Average Record
Temperature  
Mean Temperature 73 °F 64 °F  
Max Temperature 89 °F 77 °F 100 °F (1952)
Min Temperature 57 °F 52 °F 37 °F (1903)
Degree Days  
Heating Degree Days 0 3  
Month to date heating degree days 0 12  
Since 1 July heating degree days 36 55  
Cooling Degree Days 8 3  
Month to date cooling degree days 28 12  
Year to date cooling degree days 690 491  
Growing Degree Days 24 (Base 50)    
Moisture  
Dew Point 53 °F    
Average Humidity 56    
Maximum Humidity 90    
Minimum Humidity 21    
Precipitation  
Precipitation 0.00 in 0.06 in 1.20 in (1999)
Month to date precipitation 0.00 0.27  
Year to date precipitation 14.27 17.01  
Sea Level Pressure  
Sea Level Pressure 29.75 in    
Wind  
Wind Speed 6 mph (North)    
Max Wind Speed 18 mph    
Max Gust Speed 24 mph    
T = Trace of Precipitation, MM = Missing Value Source: NWS Daily Summary

Daily Weather History Graph

Daily Weather History Graph

Search for Another Location

Airport or City:

Trip Planner

Search our weather history database for the weather conditions in past years. The results will help you decide how hot, cold, wet, or windy it might be!

Date:

Astronomy

Sep. 04, 2012 Rise Set
Actual Time 6:53 AM CDT 7:59 PM CDT
Civil Twilight 6:22 AM CDT 8:29 PM CDT
Nautical Twilight 5:46 AM CDT 9:05 PM CDT
Astronomical Twilight 5:07 AM CDT 9:44 PM CDT
Moon 9:35 PM CDT (9/4) 11:17 AM CDT (9/4)
Length of Visible Light 14h 06m
Length of Day
13h 05m
Waning Gibbous, 83% of the Moon is Illuminated
Sep 4
Waning Gibbous
Sep 8
Last Quarter
Sep 15
New
Sep 22
First Quarter
Sep 29
Full

Hourly Weather History & Observations

Time (CDT) Temp. Heat Index Dew Point Humidity Pressure Visibility Wind Dir Wind Speed Gust Speed Precip Events Conditions
12:56 AM 64.0 °F - 53.1 °F 67% 29.75 in - South 9.2 mph - N/A   Unknown
1:56 AM 61.0 °F - 52.0 °F 72% 29.74 in - ESE 6.9 mph - N/A   Unknown
2:56 AM 62.1 °F - 52.0 °F 70% 29.75 in - Calm Calm - N/A   Unknown
3:56 AM 66.9 °F - 57.0 °F 70% 29.74 in - NW 6.9 mph - N/A   Unknown
4:56 AM 63.0 °F - 57.9 °F 84% 29.76 in - NW 4.6 mph - N/A   Unknown
5:56 AM 60.1 °F - 57.0 °F 90% 29.77 in - Calm Calm - N/A   Unknown
6:56 AM 61.0 °F - 55.9 °F 83% 29.79 in - West 8.1 mph - N/A   Unknown
7:56 AM 64.9 °F - 55.9 °F 73% 29.79 in - West 10.4 mph - N/A   Unknown
8:56 AM 71.1 °F - 55.9 °F 59% 29.79 in - West 6.9 mph - N/A   Unknown
9:56 AM 78.1 °F - 52.0 °F 40% 29.79 in - NNW 12.7 mph - N/A   Unknown
10:56 AM 79.0 °F - 52.0 °F 39% 29.79 in - NNW 10.4 mph - N/A   Unknown
11:56 AM 82.0 °F 81.2 °F 53.1 °F 37% 29.78 in - NNE 6.9 mph - N/A   Unknown
12:56 PM 84.0 °F - 52.0 °F 33% 29.78 in - NNE 3.5 mph - N/A   Unknown
1:56 PM 86.0 °F - 51.1 °F 30% 29.76 in - Calm Calm - N/A   Unknown
2:56 PM 88.0 °F - 48.0 °F 25% 29.74 in - North 5.8 mph - N/A   Unknown
3:56 PM 89.1 °F - 46.0 °F 22% 29.73 in - NNE 8.1 mph - N/A   Unknown
4:56 PM 87.1 °F - 44.1 °F 22% 29.72 in - ENE 3.5 mph - N/A   Unknown
5:56 PM 86.0 °F - 43.0 °F 22% 29.73 in - ENE 8.1 mph - N/A   Unknown
6:56 PM 82.9 °F - 52.0 °F 34% 29.73 in - ENE 8.1 mph - N/A   Unknown
7:56 PM 73.0 °F - 54.0 °F 51% 29.73 in - NE 3.5 mph - N/A   Unknown
8:56 PM 64.0 °F - 54.0 °F 70% 29.72 in - SSW 4.6 mph - N/A   Unknown
9:56 PM 64.9 °F - 54.0 °F 68% 29.73 in - SSW 3.5 mph - N/A   Unknown
10:56 PM 61.0 °F - 54.0 °F 78% 29.72 in - Calm Calm - N/A   Unknown
11:56 PM 63.0 °F - 55.0 °F 75% 29.72 in - North 4.6 mph - N/A   Unknown